Location: G�ppingen
(48.7089°N, 9.6563°E)
Time: 11:30:26
(UTC+01:00)

ISS - Visible Passes

Search period start: 21 November 2019 00:00
Search period end: 01 December 2019 00:00
Orbit: 412 x 421 km, 51.6° (Epoch: 21 November)

Date Brightness Start Highest point End Pass type
(mag) Time Alt. Az. Time Alt. Az. Time Alt. Az.
21 Nov -0.7 19:15:58 10° SSW 19:16:05 11° SSW 19:16:05 11° SSW visible
22 Nov -1.8 18:28:12 10° S 18:29:58 19° SSE 18:29:58 19° SSE visible
23 Nov -1.5 17:40:53 10° SSE 17:42:33 13° SE 17:43:45 11° ESE visible
23 Nov -1.3 19:15:26 10° SW 19:16:41 21° SW 19:16:41 21° SW visible
24 Nov -3.2 18:27:14 10° SW 18:30:22 42° SSE 18:30:22 42° SSE visible
25 Nov -2.5 17:39:12 10° SSW 17:42:08 28° SE 17:44:00 17° E visible
25 Nov -1.5 19:15:19 10° WSW 19:16:55 26° W 19:16:55 26° W visible
26 Nov -3.9 18:26:53 10° WSW 18:30:14 84° SSE 18:30:29 75° E visible
27 Nov -3.5 17:38:32 10° SW 17:41:50 60° SSE 17:44:00 20° ENE visible
27 Nov -1.4 19:15:21 10° W 19:16:54 24° WNW 19:16:54 24° WNW visible
28 Nov -3.6 18:26:49 10° W 18:30:09 61° NNW 18:30:23 59° NNE visible
29 Nov -3.7 17:38:18 10° WSW 17:41:39 77° NNW 17:43:51 20° ENE visible
29 Nov -1.3 19:15:21 10° WNW 19:16:44 22° WNW 19:16:44 22° WNW visible
30 Nov -3.4 18:26:49 10° W 18:30:05 49° N 18:30:11 49° N visible
